Weather History for KBPK - February, 2012

Change the Weather History Date:

Thursday, February 9, 2012

  Actual Average (KHRO) Record (KHRO)
Temperature  
Mean Temperature 38 °F 39 °F  
Max Temperature 41 °F 49 °F 80 °F (1957)
Min Temperature 34 °F 29 °F -5 °F (1979)
Degree Days  
Heating Degree Days 28 26  
Month to date heating degree days 239  
Since 1 July heating degree days 2725  
Cooling Degree Days 0 0  
Month to date cooling degree days 0  
Year to date cooling degree days 0  
Moisture  
Dew Point 29 °F    
Average Humidity 71    
Maximum Humidity 89    
Minimum Humidity 57    
Precipitation  
Precipitation 0.00 in 0.10 in 1.75 in (1966)
Month to date precipitation 0.80  
Year to date precipitation 3.36  
Snow  
Snow 0.00 in 0.10 in 10.00 in (2011)
Month to date snowfall 1.3  
Since 1 July snowfall 7.3  
Snow Depth -    
Sea Level Pressure  
Sea Level Pressure 30.28 in    
Wind  
Wind Speed 2 mph (SE)    
Max Wind Speed 6 mph    
Max Gust Speed -    
Visibility 8 miles    
Events      
T = Trace of Precipitation, MM = Missing Value Source: NWS Daily Summary

Daily Weather History Graph

Daily Weather History Graph

Search for Another Location

Airport or City:

Trip Planner

Search our weather history database for the weather conditions in past years. The results will help you decide how hot, cold, wet, or windy it might be!

Date:

Astronomy

Feb. 09, 2012 Rise Set
Actual Time 7:04 AM CST 5:44 PM CST
Civil Twilight 6:37 AM CST 6:10 PM CST
Nautical Twilight 6:07 AM CST 6:41 PM CST
Astronomical Twilight 5:37 AM CST 7:11 PM CST
Moon 8:06 PM CST (2/9) 7:46 AM CST (2/9)
Length of Visible Light 11h 33m
Length of Day
10h 39m
Waning Gibbous, 96% of the Moon is Illuminated
Feb 9
Waning Gibbous
Feb 14
Last Quarter
Feb 21
New
Feb 29
First Quarter
Mar 8
Full

Hourly Weather History & Observations

Time (CST) Temp. Windchill Dew Point Humidity Pressure Visibility Wind Dir Wind Speed Gust Speed Precip Events Conditions
12:53 AM 35.1 °F - 28.0 °F 76% 30.37 in 8.0 mi Calm Calm - N/A   Overcast
1:53 AM 35.1 °F - 28.9 °F 78% 30.37 in 9.0 mi Calm Calm - N/A   Overcast
2:53 AM 35.1 °F - 28.9 °F 78% 30.37 in 9.0 mi Calm Calm - N/A   Overcast
3:53 AM 35.1 °F - 28.9 °F 78% 30.34 in 9.0 mi Calm Calm - N/A   Overcast
4:53 AM 34.0 °F - 28.9 °F 82% 30.33 in 8.0 mi Calm Calm - N/A   Overcast
5:53 AM 34.0 °F - 30.0 °F 85% 30.34 in 8.0 mi Calm Calm - N/A   Overcast
6:53 AM 34.0 °F - 30.0 °F 85% 30.35 in 8.0 mi Calm Calm - N/A   Overcast
7:53 AM 34.0 °F - 30.9 °F 89% 30.35 in 6.0 mi Calm Calm - N/A   Overcast
8:53 AM 36.0 °F 33.3 °F 30.0 °F 79% 30.36 in 7.0 mi ESE 3.5 mph - N/A   Overcast
9:53 AM 36.0 °F 33.3 °F 28.9 °F 76% 30.36 in 6.0 mi SSE 3.5 mph - N/A   Haze
10:53 AM 37.9 °F 34.4 °F 28.0 °F 68% 30.35 in 7.0 mi SE 4.6 mph - N/A   Overcast
11:53 AM 37.9 °F 34.4 °F 27.0 °F 65% 30.32 in 7.0 mi SE 4.6 mph - N/A   Overcast
12:53 PM 39.9 °F - 26.1 °F 58% 30.29 in 7.0 mi Calm Calm - N/A   Overcast
1:53 PM 39.9 °F 37.8 °F 26.1 °F 58% 30.26 in 7.0 mi Variable 3.5 mph - N/A   Overcast
2:53 PM 41.0 °F 38.0 °F 27.0 °F 57% 30.24 in 7.0 mi Variable 4.6 mph - N/A   Overcast
3:53 PM 41.0 °F 38.0 °F 27.0 °F 57% 30.23 in 7.0 mi ESE 4.6 mph - N/A   Overcast
4:53 PM 39.9 °F 36.7 °F 27.0 °F 60% 30.21 in 8.0 mi SE 4.6 mph - N/A   Mostly Cloudy
5:53 PM 39.0 °F 34.8 °F 28.0 °F 65% 30.20 in 9.0 mi ESE 5.8 mph - N/A   Overcast
6:53 PM 39.0 °F 36.8 °F 28.9 °F 67% 30.20 in 9.0 mi SE 3.5 mph - N/A   Mostly Cloudy
7:53 PM 37.9 °F 34.4 °F 28.9 °F 70% 30.19 in 8.0 mi SE 4.6 mph - N/A   Overcast
8:53 PM 37.0 °F 33.3 °F 28.9 °F 73% 30.19 in 8.0 mi SE 4.6 mph - N/A   Mostly Cloudy
9:53 PM 37.9 °F 33.5 °F 30.0 °F 73% 30.19 in 8.0 mi SSE 5.8 mph - N/A   Overcast
10:53 PM 37.9 °F 35.5 °F 30.0 °F 73% 30.17 in 8.0 mi SE 3.5 mph - N/A   Overcast
11:53 PM 37.0 °F 34.5 °F 30.9 °F 79% 30.17 in 8.0 mi South 3.5 mph - N/A   Mostly Cloudy